Weather in Gorniki

Ukraine / Volyn Oblast     51°43′50″N   24°28′50″E
temp.,
°C
wind,
m/s
gust,
m/s
humid.,
%
clouds,
%
prec.,
mm/h
press.,
hPa
HPBL,
m
15 may, sat
sat1500:00+11sw369539 0.0 1004105
03:00+9wsw34978 0.0 100571
06:00+10w489992 0.7 1006271
09:00+11wnw5891100 0.8 1008492
12:00+14w5677100 0.0 1009855
15:00+16w6664100 0.1 10091281
18:00+15w3568100 0.0 1009986
21:00+11ssw11822 0.0 100910
16 may, sun
sun1600:00+10s23876 0.0 101025
03:00+9s339189 0.0 101145
06:00+9sse3588100 0.0 101099
09:00+14se4774100 0.0 1010386
12:00+18sse686481 0.0 10091325
15:00+21sse685476 0.2 10071888
18:00+19sse5874100 1.4 1006994
21:00+14s3792100 5.0 1005146
17 may, mon
mon1700:00+13sw3797100 1.9 1006254
03:00+10sw3897100 2.1 1007243
06:00+10wsw259797 0.0 1008127
09:00+14n01810 0.0 1008415
12:00+18w12563 0.0 10071340
15:00+19e0150100 0.1 10061659
18:00+19ne225447 0.0 10051266
21:00+15ene357786 0.0 100496
18 may, tue
tue1800:00+14s1275100 0.0 100467
03:00+12w4893100 0.1 1003371
06:00+11wnw41095100 0.8 1003463
09:00+11wnw489493 2.7 1004541
12:00+14w687786 0.6 10051066
15:00+15w796588 1.2 10051406
18:00+15w7967100 0.1 10051366
21:00+12w510785 0.1 1006449
19 may, wed
wed1900:00+9w410945 0.0 1008282
03:00+8wsw4109710 0.0 1009319
06:00+8w6129435 0.0 1009485
09:00+12wnw7117415 0.0 1010935
12:00+15wnw795894 0.1 10111754
15:00+16w795595 0.3 10111982
18:00+14wnw586697 0.2 10111327
21:00+10w37817 0.4 1013131